Flag for Portugal Weather past 2 weeks in Funchal, Madeira, Portugal

Now
68 °F

Passing clouds.


Feels Like: 68 °F
Forecast: 73 / 77 °F
Wind: 7 mph from Northwest

Location: Aeroporto Da Madeira

Current Time: Sep 18, 2014 at 12:41:26 AM

Latest Report: Sep 18, 2014 at 12:00 AM


Visibility: N/A

Pressure: 29.95 "Hg

Humidity: 69%

Dew point: 57 °F

Location of FunchalLocation

Historic Weather in Funchal — Graph

°F

Funchal temperature yesterday

Maximum temperature yesterday: 77 °F (at 4:00 PM)
Minimum temperature yesterday: 66 °F (at 4:00 AM)
Average temperature yesterday: 71 °F

Past Weeks' High & Low Weather Summary

 TemperatureHumidityPressure
High82 °F (Sep 10, 3:00 PM)100% (Sep 4, 1:00 AM)30.09 "Hg (Sep 4, 1:00 AM)
Low66 °F (Sep 15, 5:00 PM)50% (Sep 14, 6:00 AM)29.74 "Hg (Sep 15, 3:30 PM)
Average73 °F74%29.96 "Hg
* Reported Sep 2 11:00 PM — Sep 17 11:00 PM, Funchal, Weather by CustomWeather, © 2014

Note: Actual official high and low records may vary slightly from our data, if they occured in-between our weather recording intervals... More about our weather records

Advertising

Funchal weather history for previous 24 hours

 ConditionsComfort  
Time TempWeatherWind HumidityBarometerVisibility
11:00 PM
Sep 17
68 °FPassing clouds.6 mph73%29.95 "HgN/A
10:30 PM68 °FPassing clouds.3 mph73%29.95 "HgN/A
10:00 PM70 °FPassing clouds.5 mph73%29.95 "HgN/A
9:30 PM70 °FPassing clouds.3 mph73%29.92 "HgN/A
9:00 PM72 °FScattered clouds.5 mph69%29.92 "HgN/A
8:30 PM72 °FScattered clouds.3 mph69%29.92 "HgN/A
8:00 PM72 °FScattered clouds.3 mph69%29.89 "HgN/A
7:30 PM73 °FScattered clouds.5 mph65%29.89 "HgN/A
7:00 PM73 °FScattered clouds.3 mph65%29.89 "HgN/A
6:30 PM73 °FScattered clouds.8 mph65%29.89 "HgN/A
6:00 PM75 °FScattered clouds.2 mph61%29.89 "HgN/A
5:30 PM75 °FScattered clouds.3 mph61%29.89 "HgN/A
5:00 PM73 °FScattered clouds.8 mph65%29.92 "HgN/A
4:30 PM75 °FScattered clouds.6 mph65%29.92 "HgN/A
4:00 PM77 °FScattered clouds.5 mph61%29.92 "HgN/A
3:00 PM73 °FScattered clouds.5 mph65%29.92 "HgN/A
2:30 PM75 °FScattered clouds.3 mph61%29.92 "HgN/A
2:00 PM73 °FScattered clouds.3 mph69%29.92 "HgN/A
1:30 PM73 °FScattered clouds.2 mph69%29.95 "HgN/A
1:00 PM73 °FScattered clouds.3 mph69%29.95 "HgN/A
12:30 PM75 °FPassing clouds.5 mph65%29.95 "HgN/A
12:00 PM73 °FScattered clouds.3 mph65%29.95 "HgN/A
11:30 AM73 °FScattered clouds.3 mph65%29.95 "HgN/A
11:00 AM73 °FScattered clouds.3 mph69%29.95 "HgN/A
10:30 AM75 °FPassing clouds.3 mph65%29.92 "HgN/A
10:00 AM73 °FPassing clouds.2 mph65%29.92 "HgN/A
9:30 AM73 °FPassing clouds.3 mph69%29.92 "HgN/A
9:00 AM70 °FPassing clouds.3 mph73%29.92 "HgN/A
8:30 AM66 °FPassing clouds.3 mph83%29.89 "HgN/A
8:00 AM66 °FPassing clouds.5 mph83%29.89 "HgN/A
7:30 AM66 °FPassing clouds.2 mph83%29.89 "HgN/A
7:00 AM66 °FPassing clouds.3 mph78%29.89 "HgN/A
6:30 AM66 °FPassing clouds.3 mph83%29.89 "HgN/A
6:00 AM66 °FPassing clouds.3 mph83%29.89 "HgN/A
5:30 AM66 °FPassing clouds.3 mph83%29.89 "HgN/A
5:00 AM66 °FPassing clouds.5 mph83%29.89 "HgN/A
4:30 AM66 °FPassing clouds.5 mph83%29.89 "HgN/A
4:00 AM66 °FPassing clouds.5 mph83%29.89 "HgN/A
3:30 AM68 °FPassing clouds.3 mph78%29.89 "HgN/A
3:00 AM68 °FPassing clouds.5 mph78%29.89 "HgN/A
2:30 AM68 °FPassing clouds.3 mph83%29.89 "HgN/A
2:00 AM68 °FPassing clouds.2 mph83%29.89 "HgN/A
1:30 AM68 °FPassing clouds.3 mph83%29.89 "HgN/A
1:00 AM68 °FPassing clouds.3 mph83%29.89 "HgN/A
12:30 AM68 °FPassing clouds.2 mph83%29.89 "HgN/A
12:00 AM70 °FPassing clouds.5 mph78%29.89 "HgN/A
Weather by CustomWeather, © 2014

See weather overviewHow to use our weather pages